Regional Weather Roundup
Issued by NWS Sterling, VA

Home | Current Version | Previous Version | Graphics & Text | Print | Product List | Glossary On
Versions: 1 2 3 4 5 6 7 8 9 10 11 12 13 14 15 16 17 18 19 20 21 22 23 24 25 26 27 28 29 30 31 32 33 34 35 36 37 38 39 40 41 42 43 44 45 46 47 48 49 50
000
ASUS41 KLWX 180810
RWRLWX

REGIONAL WEATHER ROUNDUP
NATIONAL WEATHER SERVICE BALTIMORE MD/WASHINGTON DC
400 AM EDT THU SEP 18 2014

Note: "FAIR" indicates few or no clouds below 12,000 feet
with no significant weather and/or obstructions to visibility.
 TC=TEMPERATURE CELSIUS

 * =Non NWS site. Station does not report precipitation (e.g. rain,
    snow, etc.), thunder, or fog.

DCZ001-MDZ009-015-VAZ040>042-051-053>054-180900-
WASHINGTON METRO

CITY           SKY/WX    TMP DP  RH WIND       PRES   REMARKS
WASHINGTON NAT CLOUDY    66  53  63 SW3       29.98R
DULLES         CLOUDY    54  52  93 CALM      29.97F
ANDREWS AFB    CLOUDY    57  54  88 CALM      29.97S
QUANTICO       CLOUDY    60  56  86 NW6       29.98S
COLLEGE PARK*  CLOUDY    59  55  88 CALM      29.96S
LEESBURG*      CLOUDY    55  55 100 CALM      29.98S
MANASSAS*      CLOUDY    55  54  94 CALM      29.97S
GAITHERSBURG*  CLOUDY    55  54  94 CALM      30.01S

$$

MDZ006>007-011-014-180900-
BALTIMORE METRO

CITY           SKY/WX    TMP DP  RH WIND       PRES   REMARKS
BWI AIRPORT    MOCLDY    56  53  90 CALM      29.96S
MD SCIENCE CTR   N/A     63  53  70 MISG      29.97S
MARTIN STATE   CLEAR     54  54 100 CALM      29.98S
ANNAPOLIS      CLOUDY    63  57  81 CALM      29.96S
FORT MEADE*    CLOUDY    54  52  94 CALM      29.99S

$$

MDZ012-015-019>023-180900-
MARYLAND EASTERN SHORE

CITY           SKY/WX    TMP DP  RH WIND       PRES   REMARKS
OCEAN CITY     CLEAR     53  49  86 NW3       29.96S
SALISBURY      CLEAR     54  48  80 CALM      29.97S
BAY BRIDGE AP*   N/A     64  50  59 S3        29.97R
CAMBRIDGE*     PTCLDY    54  50  87 CALM      29.97R
EASTON*        CLOUDY    56  56 100 CALM      30.00S

$$

MDZ017>025-180900-
SOUTHERN MARYLAND

CITY           SKY/WX    TMP DP  RH WIND       PRES   REMARKS
PATUXENT RIVER CLOUDY    61  57  87 SW3       29.96S
ST INIGOES       N/A    N/A N/A N/A MISG      29.95F
LEONARDTOWN*   CLOUDY    57  54  88 CALM      29.98S

$$

MDZ003>005-180900-
NORTH CENTRAL MARYLAND

CITY           SKY/WX    TMP DP  RH WIND       PRES   REMARKS
FREDERICK*     MOCLDY    54  52  94 CALM      30.00S
HAGERSTOWN APT PTCLDY    53  48  83 NW3       29.97S
WESTMINSTER*   MOCLDY    55  50  82 CALM      29.97S

$$

MDZ501>502-180900-
WESTERN MARYLAND

CITY           SKY/WX    TMP DP  RH WIND       PRES   REMARKS
OAKLAND*       CLEAR     50  50 100 CALM      30.02S
CUMBERLAND*    PTCLDY    54  50  87 NE3       30.02S

$$

VAZ025>031-180900-
SHENANDOAH VALLEY

CITY           SKY/WX    TMP DP  RH WIND       PRES   REMARKS
WINCHESTER*    CLEAR     52  50  93 W3        29.97R
STAUNTON*      MOCLDY    52  49  91 CALM      30.00S

$$

WVZ021-048>050-054>055-180900-
EASTERN WEST VIRGINIA PANHANDLE

CITY           SKY/WX    TMP DP  RH WIND       PRES   REMARKS
MARTINSBURG    CLEAR     54  49  83 CALM      29.97S
PETERSBURG*    FOG       51  49  93 CALM      30.00S VSB 1

$$

VAZ036>039-050-180900-
CENTRAL FOOTHILLS

CITY           SKY/WX    TMP DP  RH WIND       PRES   REMARKS
CHARLOTTESVILL CLOUDY    56  54  93 CALM      29.97S
ORANGE*        CLOUDY    54  52  94 CALM      29.99R

$$

VAZ055>057-180900-
NORTH AND CENTRAL PIEDMONT

CITY           SKY/WX    TMP DP  RH WIND       PRES   REMARKS
FREDERICKSBRG* CLOUDY    58  58  98 CALM      29.96S
STAFFORD*      CLOUDY    55  55 100 CALM      30.01S

$$

NCZ024-NYZ072-PAZ021-071-VAZ022-071-180900-
OTHER REGIONAL OBSERVATIONS

CITY           SKY/WX    TMP DP  RH WIND       PRES   REMARKS
NEW YORK CITY  CLEAR     62  51  67 VRB3      29.99S
PHILADELPHIA   CLEAR     58  52  80 N3        29.97S
PITTSBURGH     PTCLDY    54  49  83 N5        30.00
ROANOKE        CLOUDY    58  55  90 CALM      30.01R
RICHMOND       PTCLDY    58  56  93 CALM      29.96S
RALEIGH        PTCLDY    61  58  90 CALM      29.95S

$$

ANZ530>537-180900-
MARINE OBSERVATIONS

STATION/POSITION TIME  TEMP    WIND        PRES
                       AIR SEA DIR/SP/G
                 (UTC) (F)     (DEG/KT/KT) (MB)
THOMAS PT LIGHT  0800   69 74  210/  9/ 11 1015.6R
BALT KEY BRIDGE  0800   65     300/  4/  4 1014.6S
COVE POINT       0800   67     240/  4/  6 1014.5S
LEWISETTA        0800   65 74  250/  2/  2 1014.0F
SOLOMONS ISLAND  0800      76                N/A
PINEY POINT      0800          200/  5/  6   N/A

$$




USA.gov is the U.S. government's official web portal to all federal, state and local government web resources and services.